Location: Waning Moon II Observatory
(30.3730°N, 89.7620°W)
Time: 10:16:53
(UTC-05:00)

Cosmos 1825 Rocket - Visible Passes

Search period start: 25 July 2014 00:00
Search period end: 04 August 2014 00:00
Orbit: 607 x 632 km, 82.5° (Epoch: 24 July)

Date Brightness Start Highest point End Pass type
(mag) Time Alt. Az. Time Alt. Az. Time Alt. Az.
25 Jul 6.2 23:40:24 10° N 23:41:27 17° N 23:41:27 17° N visible
26 Jul 6.5 23:58:11 10° NNW 23:58:52 14° NNW 23:58:52 14° NNW visible
27 Jul 5.9 22:38:08 10° NNE 22:39:08 15° NNE 22:39:08 15° NNE visible
28 Jul 5.8 22:55:06 10° N 22:56:35 20° N 22:56:35 20° N visible
29 Jul 5.9 23:12:31 10° NNW 23:14:03 21° NNW 23:14:03 21° NNW visible
30 Jul 6.0 21:53:54 10° NE 21:54:21 11° NE 21:54:21 11° NE visible
30 Jul 6.2 23:30:20 10° NNW 23:31:31 17° NW 23:31:31 17° NW visible
31 Jul 5.5 22:10:09 10° NNE 22:11:51 19° NE 22:11:51 19° NE visible
31 Jul 6.7 23:48:51 10° NW 23:49:01 11° NW 23:49:01 11° NW visible
01 Aug 5.2 22:27:10 10° N 22:29:22 28° NNE 22:29:22 28° NNE visible
02 Aug 5.3 22:44:37 10° NNW 22:46:53 30° NNW 22:46:53 30° NNW visible
03 Aug 5.6 21:25:48 10° NE 21:27:16 14° ENE 21:27:16 14° ENE visible
03 Aug 5.9 23:02:30 10° NNW 23:04:26 21° NW 23:04:26 21° NW visible
